Погода в Нижнебруслановом

Россия / Липецкая область     52°54′09″N   39°01′53″E
темп.,
°C
ветер,
м/с
пор.,
м/с
влажн.,
%
обл.,
%
осадки,
мм/ч
давл.,
гПа
погр.,
м
16 июня, ср
ср1600:00+17ссз229098 0.1 100925
03:00+16ссз339299 0.1 101048
06:00+17сз2592100 0.0 1010146
09:00+21ссз347799 0.0 1011484
12:00+24ссз556798 0.3 10111140
15:00+24ссз456819 1.3 10121221
18:00+22с468092 1.6 1013567
21:00+18с389210 1.6 1015177
17 июня, чт
чт1700:00+15с410940 0.0 1017204
03:00+14ссв39940 0.0 1018183
06:00+14ссв411820 0.0 1020255
09:00+18св69660 0.0 1021512
12:00+21св67590 0.0 10221181
15:00+22св67555 0.0 10221324
18:00+21св47691 0.0 10231104
21:00+16ссв35870 0.0 102470
18 июня, пт
пт1800:00+13св36900 0.0 102588
03:00+13св37905 0.0 1026106
06:00+14всв27830 0.0 1027195
09:00+19всв46655 0.0 1028568
12:00+21всв56570 0.0 10271253
15:00+22всв56560 0.0 10271396
18:00+21всв46680 0.0 1027855
21:00+16в33810 0.0 102726
19 июня, сб
сб1900:00+14вюв22885 0.0 102813
03:00+13вюв228628 0.0 102911
06:00+15в23835 0.0 103091
09:00+20вюв23684 0.0 1029483
12:00+23юв34590 0.0 10291271
15:00+24юв33560 0.0 10281397
18:00+24юв22640 0.0 10271317
21:00+18юв22835 0.0 102711
20 июня, вс
вс2000:00+16ю11850 0.0 102811
03:00+15юв11860 0.0 102811
06:00+17в11830 0.0 102858
09:00+22вюв23700 0.0 1027595
12:00+24вюв33605 0.0 10261257
15:00+26вюв34560 0.0 10241440
18:00+25юв23660 0.0 10231081
21:00+20в22810 0.0 102412